This is the latest recevied weather packets stored in our database for station/object AE5HO. If no packets are shown the sender has not sent any weather packets the latest 10 day(s).
| Time | Temp. | Humidity | Pressure | Rain* | Wind** | Luminosity | Snow |
|---|---|---|---|---|---|---|---|
| 1787870104 | 37.22° C | 40% | 1013.5 hPa | 0 mm | - | 31 W/m² | - |
| 1787869802 | 37.22° C | 41% | 1013.7 hPa | 0 mm | - | 31 W/m² | - |
| 1787869497 | 37.78° C | 40% | 1013.6 hPa | 0 mm | - | 32 W/m² | - |
| 1787869196 | 37.22° C | 40% | 1013.8 hPa | 0 mm | - | 42 W/m² | - |
| 1787868891 | 37.78° C | 39% | 1013.9 hPa | 0 mm | - | 33 W/m² | - |
| 1787868589 | 37.78° C | 39% | 1013.8 hPa | 0 mm | - | 34 W/m² | - |
| 1787868289 | 37.78° C | 38% | 1013.9 hPa | 0 mm | - | 32 W/m² | - |
| 1787867984 | 37.22° C | 40% | 1013.9 hPa | 0 mm | - | 45 W/m² | - |
| 1787867680 | 37.22° C | 39% | 1014 hPa | 0 mm | - | 33 W/m² | - |
| 1787867379 | 37.78° C | 40% | 1014.1 hPa | 0 mm | - | 32 W/m² | - |
| 1787867076 | 37.78° C | 41% | 1014.4 hPa | 0 mm | - | 33 W/m² | - |
| 1787866771 | 37.22° C | 40% | 1014.1 hPa | 0 mm | - | 34 W/m² | - |
| 1787866470 | 37.22° C | 39% | 1014.3 hPa | 0 mm | - | 33 W/m² | - |
| 1787866169 | 37.22° C | 40% | 1014.5 hPa | 0 mm | - | 71 W/m² | - |
| 1787865864 | 37.78° C | 40% | 1014.7 hPa | 0 mm | - | 34 W/m² | - |
| 1787865560 | 37.22° C | 40% | 1014.6 hPa | 0 mm | - | 35 W/m² | - |
| 1787865254 | 37.22° C | 41% | 1014.9 hPa | 0 mm | - | 40 W/m² | - |
| 1787864950 | 37.22° C | 42% | 1014.8 hPa | 0 mm | - | 37 W/m² | - |
| 1787864647 | 37.22° C | 42% | 1014.6 hPa | 0 mm | - | 39 W/m² | - |
| 1787864345 | 37.22° C | 42% | 1014.8 hPa | 0 mm | - | 39 W/m² | - |
| 1787864045 | 37.78° C | 40% | 1014.9 hPa | 0 mm | - | 40 W/m² | - |
| 1787863744 | 37.22° C | 40% | 1015 hPa | 0 mm | - | 45 W/m² | - |
| 1787863443 | 37.22° C | 40% | 1014.9 hPa | 0 mm | - | 53 W/m² | - |
| 1787863139 | 37.78° C | 41% | 1014.9 hPa | 0 mm | - | 60 W/m² | - |
| 1787862835 | 37.22° C | 42% | 1015.1 hPa | 0 mm | - | 69 W/m² | - |
* Rain latest hour (hover to see other rain measurements)
** Current wind speed in m/s (hover to see current wind gust speed)